Location: Acts Church of Fort Worth
(32.6786°N, 97.2668°W)
Time: 21:44:25
(UTC+00:00)

Spot 4 Rocket - Pass Details

Date: 18 January 2026
Orbit: 768 x 774 km, 98.8° (Epoch: 10 February)

Event Time Altitude Azimuth Distance (km) Brightness Sun altitude
Rises 00:45:22 0° 152° (SSE) 3,235 7.1 -12.1°
Reaches altitude 10° 00:47:44 10° 146° (SSE) 2,312 6.3 -12.6°
Maximum altitude 00:52:37 49° 73° (ENE) 994 4.2 -13.6°
Drops below altitude 10° 00:57:32 10° 359° (N) 2,324 6.3 -14.6°
Sets 00:59:55 0° 354° (N) 3,253 7.2 -15.1°
